N6OL Weather Reports


time (UTC)temp
C
wind
direction
speed
KPH
gust
KPH
rain 1hr
cm
rain 24hr
cm
rain mn
cm
humidity
%
barometer
mb
20260506062003 13 237 0.0 1.6 0.00 0.23 0.23 82 1018.2
20260506061503 13 237 0.0 1.6 0.00 0.23 0.23 82 1018.2
20260506061003 13 0 0.0 3.2 0.00 0.23 0.23 82 1017.9
20260506060503 13 0 0.0 3.2 0.00 0.23 0.23 82 1017.9
20260506051003 13 266 1.6 4.8 0.00 0.23 0.23 80 1017.7
20260506050503 13 268 3.2 4.8 0.00 0.23 0.23 80 1017.6
20260506045003 13 268 3.2 8.0 0.00 0.23 0.23 80 1017.4
20260506044503 13 275 3.2 8.0 0.00 0.23 0.23 80 1017.4
20260506044003 13 276 3.2 6.4 0.00 0.23 0.23 79 1017.4
20260506043503 13 273 3.2 6.4 0.00 0.23 0.23 79 1017.3
20260506043003 14 274 3.2 6.4 0.00 0.23 0.23 79 1017.4
20260506042503 14 264 3.2 6.4 0.00 0.23 0.23 79 1017.2
20260506042003 14 264 4.8 11.3 0.00 0.23 0.23 79 1017.3
20260506041503 14 269 4.8 11.3 0.00 0.23 0.23 79 1017.2
20260506041003 14 269 4.8 9.7 0.00 0.23 0.23 78 1017.1
20260506040503 14 269 4.8 11.3 0.00 0.23 0.23 78 1017.1
20260506040003 14 266 6.4 11.3 0.00 0.23 0.23 78 1016.8
20260506035503 14 264 6.4 11.3 0.00 0.23 0.23 77 1016.7
20260506035003 14 263 6.4 11.3 0.00 0.23 0.23 77 1016.5
20260506034503 14 260 4.8 11.3 0.00 0.23 0.23 77 1016.5
20260506034003 14 254 4.8 12.9 0.00 0.23 0.23 77 1016.3
20260506033503 14 261 6.4 14.5 0.00 0.23 0.23 76 1016.3
20260506033003 14 268 8.0 14.5 0.00 0.23 0.23 76 1016.3
20260506032503 14 268 8.0 12.9 0.00 0.23 0.23 76 1016.3
20260506032003 14 259 8.0 12.9 0.00 0.23 0.23 76 1016.1
20260506031524 14 250 8.0 17.7 0.00 0.23 0.23 75 1016.3
20260506031003 15 248 8.0 17.7 0.00 0.23 0.23 75 1016.1
20260506030503 15 256 9.7 17.7 0.00 0.23 0.23 75 1016.2
20260506030003 15 264 9.7 17.7 0.00 0.23 0.23 74 1016.1
20260506025503 15 271 9.7 17.7 0.00 0.23 0.23 74 1016.1
20260506025003 15 276 11.3 17.7 0.00 0.23 0.23 74 1016.0
20260506024503 15 264 9.7 20.9 0.00 0.23 0.23 73 1016.0
20260506024003 15 262 9.7 20.9 0.00 0.23 0.23 73 1015.9
20260506023503 15 267 12.9 20.9 0.00 0.23 0.23 73 1015.9
20260506023003 15 261 12.9 20.9 0.00 0.23 0.23 73 1015.9
20260506022503 15 258 14.5 20.9 0.00 0.23 0.23 73 1015.8
20260506022003 15 254 14.5 27.4 0.00 0.23 0.23 74 1015.7
20260506021503 15 249 14.5 27.4 0.00 0.23 0.23 73 1015.8
20260506021003 15 252 16.1 24.1 0.00 0.23 0.23 73 1015.7
20260506020503 16 256 16.1 24.1 0.00 0.23 0.23 73 1015.8
20260506020003 16 255 14.5 24.1 0.00 0.23 0.23 72 1015.7
20260506015503 16 249 14.5 24.1 0.00 0.23 0.23 72 1015.6
20260506015003 16 248 14.5 24.1 0.00 0.23 0.23 72 1015.5
20260506014503 16 246 14.5 24.1 0.00 0.23 0.23 71 1015.5
20260506014003 16 247 14.5 22.5 0.00 0.23 0.23 70 1015.4
20260506013503 16 254 12.9 19.3 0.00 0.23 0.23 70 1015.7
20260506013003 16 259 12.9 20.9 0.00 0.23 0.23 69 1015.5
20260506012503 16 258 12.9 20.9 0.00 0.23 0.23 68 1015.6
20260506012003 17 260 12.9 19.3 0.00 0.23 0.23 68 1015.5
20260506011503 17 261 9.7 19.3 0.00 0.23 0.23 67 1015.4
20260506011003 17 252 6.4 16.1 0.00 0.23 0.23 68 1015.4
20260506010503 17 251 6.4 16.1 0.00 0.23 0.23 68 1015.5
20260506010003 17 247 9.7 16.1 0.00 0.23 0.23 67 1015.5
20260506005503 17 246 8.0 14.5 0.00 0.23 0.23 67 1015.4
20260506005003 17 249 8.0 16.1 0.00 0.23 0.23 66 1015.4
20260506004504 17 249 8.0 16.1 0.00 0.23 0.23 66 1015.4
20260506004003 17 250 9.7 16.1 0.00 0.23 0.23 66 1015.3
20260506003503 17 248 8.0 16.1 0.00 0.23 0.23 65 1015.3
20260506003003 17 234 8.0 16.1 0.00 0.23 0.23 66 1015.3
20260506002503 17 234 11.3 19.3 0.00 0.23 0.23 66 1015.2
20260506002003 17 242 11.3 22.5 0.00 0.23 0.23 66 1015.3
20260506001503 17 245 11.3 22.5 0.00 0.23 0.23 67 1015.2
20260506001003 17 244 11.3 22.5 0.00 0.23 0.23 66 1015.2
20260506000503 17 242 9.7 20.9 0.00 0.23 0.23 66 1015.1
20260506000003 17 240 11.3 20.9 0.00 0.23 0.23 66 1015.0
20260505235524 17 238 11.3 20.9 0.00 0.23 0.23 66 1015.1
20260505235024 17 247 12.9 19.3 0.00 0.23 0.23 67 1015.1
20260505234503 17 252 12.9 22.5 0.00 0.23 0.23 67 1015.1
20260505234003 17 255 11.3 22.5 0.00 0.23 0.23 66 1015.1
20260505233503 17 268 9.7 22.5 0.00 0.23 0.23 67 1015.2
20260505233003 17 275 9.7 19.3 0.00 0.23 0.23 67 1015.2
20260505232503 17 276 9.7 19.3 0.00 0.23 0.23 67 1015.2
20260505232003 17 278 9.7 19.3 0.00 0.23 0.23 66 1015.2
20260505231503 17 279 9.7 17.7 0.00 0.23 0.23 66 1015.3
20260505231024 17 275 8.0 16.1 0.00 0.23 0.23 66 1015.3
20260505230524 17 263 9.7 19.3 0.00 0.23 0.23 66 1015.3
20260505230003 17 277 9.7 19.3 0.00 0.23 0.23 65 1015.1
20260505225503 17 282 9.7 19.3 0.00 0.23 0.23 65 1015.2
20260505225003 17 288 9.7 20.9 0.00 0.23 0.23 65 1015.2
20260505224503 17 296 9.7 20.9 0.00 0.23 0.23 65 1015.2
20260505224003 17 286 8.0 19.3 0.00 0.23 0.23 65 1015.2
20260505223503 17 287 8.0 17.7 0.00 0.23 0.23 64 1015.2
20260505223003 17 281 8.0 17.7 0.00 0.23 0.23 64 1015.3
20260505222503 17 282 8.0 19.3 0.00 0.23 0.23 63 1015.3
20260505222003 17 284 9.7 20.9 0.00 0.23 0.23 63 1015.4
20260505221503 17 288 11.3 20.9 0.00 0.23 0.23 64 1015.3
20260505221003 18 303 11.3 22.5 0.00 0.23 0.23 63 1015.3
20260505220503 17 309 11.3 22.5 0.00 0.23 0.23 64 1015.4
20260505220003 18 306 11.3 22.5 0.00 0.23 0.23 64 1015.3
20260505215503 18 309 9.7 22.5 0.00 0.23 0.23 63 1015.4
20260505215003 18 308 9.7 22.5 0.00 0.23 0.23 65 1015.5
20260505214503 17 306 9.7 17.7 0.00 0.23 0.23 65 1015.5
20260505214003 17 307 11.3 20.9 0.00 0.23 0.23 64 1015.6
20260505213503 17 293 11.3 20.9 0.00 0.23 0.23 64 1015.6
20260505213003 18 289 11.3 25.7 0.00 0.23 0.23 63 1015.5
20260505212503 18 282 11.3 25.7 0.00 0.23 0.23 64 1015.6
20260505212003 17 288 11.3 20.9 0.00 0.23 0.23 63 1015.7
20260505211503 17 309 11.3 22.5 0.00 0.23 0.23 63 1015.7
20260505211003 17 310 11.3 22.5 0.00 0.23 0.23 63 1015.7
20260505210503 17 313 9.7 20.9 0.00 0.23 0.23 63 1015.8
20260505210003 17 312 11.3 25.7 0.00 0.23 0.23 63 1015.7
20260505205503 17 313 11.3 25.7 0.00 0.23 0.23 63 1015.7
20260505205003 17 320 12.9 25.7 0.00 0.23 0.23 64 1015.7
20260505204524 17 317 14.5 25.7 0.00 0.23 0.23 63 1015.7
20260505204003 17 297 11.3 24.1 0.00 0.23 0.23 64 1015.6
20260505203503 17 306 11.3 22.5 0.00 0.23 0.23 65 1015.6
20260505203003 17 320 9.7 20.9 0.00 0.23 0.23 65 1015.7
20260505202503 17 320 11.3 22.5 0.00 0.23 0.23 65 1015.7
20260505202003 17 323 11.3 22.5 0.00 0.23 0.23 64 1015.8
20260505201503 17 327 9.7 19.3 0.00 0.23 0.23 65 1015.8
20260505201003 17 326 9.7 20.9 0.00 0.23 0.23 64 1015.8
20260505200503 17 316 9.7 20.9 0.00 0.23 0.23 64 1015.9
20260505200003 17 309 9.7 22.5 0.00 0.23 0.23 66 1015.8
20260505195503 17 317 11.3 22.5 0.00 0.23 0.23 65 1015.8
20260505195003 17 313 11.3 22.5 0.00 0.23 0.23 66 1015.8
20260505194503 17 295 11.3 22.5 0.00 0.23 0.23 64 1015.8
20260505194024 17 292 11.3 20.9 0.00 0.23 0.23 65 1015.8
20260505193503 17 291 11.3 20.9 0.00 0.23 0.23 65 1015.9
20260505193003 17 287 11.3 24.1 0.00 0.23 0.23 67 1016.0
20260505192503 17 296 9.7 24.1 0.00 0.23 0.23 66 1016.0
20260505192003 17 299 11.3 24.1 0.00 0.23 0.23 66 1015.9
20260505191503 17 304 11.3 24.1 0.00 0.23 0.23 67 1015.9
20260505191003 17 297 11.3 20.9 0.00 0.23 0.23 68 1015.9
20260505190503 17 301 11.3 20.9 0.00 0.23 0.23 68 1015.9
20260505190003 16 318 11.3 22.5 0.00 0.23 0.23 71 1015.7
20260505185503 16 319 9.7 22.5 0.00 0.23 0.23 74 1015.8
20260505185004 16 324 9.7 19.3 0.00 0.23 0.23 74 1015.7
20260505184503 15 320 8.0 19.3 0.00 0.23 0.23 74 1015.7
20260505184003 15 308 8.0 17.7 0.00 0.23 0.23 75 1015.7
20260505183503 15 306 9.7 19.3 0.00 0.23 0.23 75 1015.8
20260505183003 15 296 9.7 19.3 0.00 0.23 0.23 76 1015.6
20260505182503 15 293 8.0 16.1 0.00 0.23 0.23 76 1015.7
20260505182003 15 312 6.4 16.1 0.00 0.23 0.23 77 1015.6
20260505181524 15 320 6.4 16.1 0.00 0.23 0.23 77 1015.5
20260505181003 15 321 8.0 16.1 0.00 0.23 0.23 78 1015.6
20260505180524 15 316 8.0 16.1 0.00 0.23 0.23 79 1015.7
20260505180003 14 317 8.0 16.1 0.00 0.23 0.23 79 1015.7
20260505175524 14 316 8.0 16.1 0.00 0.23 0.23 80 1015.8
20260505175025 14 300 9.7 19.3 0.00 0.23 0.23 80 1015.6
20260505174503 14 288 11.3 19.3 0.00 0.23 0.23 81 1015.5
20260505174024 14 294 9.7 17.7 0.00 0.23 0.23 81 1015.6
20260505173503 14 306 6.4 16.1 0.00 0.23 0.23 82 1015.5
20260505173003 14 304 6.4 14.5 0.00 0.23 0.23 83 1015.4
20260505172503 13 305 6.4 14.5 0.00 0.23 0.23 83 1015.4
20260505172024 13 304 8.0 14.5 0.00 0.23 0.23 83 1015.3
20260505171503 13 301 6.4 14.5 0.00 0.23 0.23 84 1015.3
20260505171003 13 291 8.0 19.3 0.00 0.23 0.23 84 1015.2
20260505170503 13 287 8.0 19.3 0.00 0.23 0.23 84 1015.2
20260505170003 13 288 8.0 16.1 0.00 0.23 0.23 84 1015.2
20260505165524 13 281 8.0 16.1 0.00 0.23 0.23 85 1015.2
20260505165003 13 272 8.0 16.1 0.00 0.23 0.23 85 1015.2
20260505164503 13 266 6.4 14.5 0.00 0.23 0.23 86 1015.2
20260505164003 13 272 6.4 14.5 0.00 0.23 0.23 86 1015.2
20260505163503 13 276 6.4 14.5 0.00 0.23 0.23 86 1015.3
20260505163003 13 266 8.0 14.5 0.00 0.23 0.23 86 1015.2
20260505162503 13 261 8.0 14.5 0.00 0.23 0.23 86 1015.2
20260505162003 13 265 6.4 12.9 0.00 0.23 0.23 86 1015.2
20260505161503 13 291 4.8 12.9 0.00 0.23 0.23 86 1015.2
20260505161003 13 302 3.2 12.9 0.00 0.23 0.23 86 1015.1
20260505160524 13 248 1.6 6.4 0.00 0.23 0.23 86 1015.2
20260505153024 12 218 3.2 6.4 0.00 0.23 0.23 85 1015.0
20260505152503 12 207 3.2 6.4 0.00 0.23 0.23 86 1015.0
20260505152024 12 208 3.2 6.4 0.00 0.23 0.23 86 1014.9
20260505151503 12 223 1.6 4.8 0.00 0.23 0.23 86 1014.8
20260505151003 12 230 1.6 4.8 0.00 0.23 0.23 86 1014.8
20260505150503 12 235 1.6 4.8 0.00 0.23 0.23 86 1014.8
20260505140503 12 240 0.0 3.2 0.00 0.23 0.23 87 1014.3
20260505125003 11 259 0.0 4.8 0.00 0.23 0.23 87 1014.4
20260505124503 11 265 1.6 4.8 0.03 0.23 0.23 87 1014.4
20260505124003 11 277 0.0 4.8 0.03 0.23 0.23 87 1014.5
20260505123503 11 360 0.0 1.6 0.03 0.23 0.23 88 1014.5
20260505123003 11 0 0.0 1.6 0.03 0.23 0.23 88 1014.3
20260505122503 11 246 0.0 8.0 0.03 0.23 0.23 88 1014.4
20260505122003 11 251 0.0 8.0 0.03 0.23 0.23 88 1014.3
20260505121503 11 245 1.6 8.0 0.03 0.23 0.23 88 1014.3
20260505121003 11 239 4.8 11.3 0.03 0.23 0.23 88 1014.2
20260505120503 11 230 4.8 11.3 0.03 0.23 0.23 88 1014.2
20260505120004 11 228 4.8 8.0 0.03 0.23 0.23 88 1014.2
20260505115503 11 232 4.8 11.3 0.03 0.23 0.23 88 1014.3
20260505115024 11 232 6.4 11.3 0.03 0.23 0.23 88 1014.9
20260505114524 11 236 6.4 11.3 0.00 0.20 0.20 88 1014.3
20260505114003 11 240 4.8 11.3 0.00 0.20 0.20 88 1014.3
20260505113503 11 257 4.8 8.0 0.00 0.20 0.20 88 1014.4
20260505113003 11 275 4.8 6.4 0.00 0.20 0.20 88 1014.7
20260505112503 11 276 4.8 9.7 0.00 0.20 0.20 88 1014.6
20260505112003 11 277 4.8 11.3 0.00 0.20 0.20 88 1014.6
20260505111503 11 268 6.4 11.3 0.00 0.20 0.20 89 1014.7
20260505111024 11 260 6.4 11.3 0.00 0.20 0.20 89 1014.5
20260505110503 11 258 6.4 11.3 0.00 0.20 0.20 89 1014.5
20260505102004 11 271 0.0 3.2 0.00 0.20 0.20 89 1014.3
20260505101503 11 291 1.6 6.4 0.00 0.20 0.20 89 1014.2
20260505101024 11 301 1.6 6.4 0.00 0.20 0.20 89 1014.4
20260505100503 11 0 0.0 1.6 0.03 0.20 0.20 89 1014.5
20260505100003 11 221 0.0 1.6 0.03 0.20 0.20 89 1014.6
20260505095503 11 222 0.0 3.2 0.05 0.20 0.20 89 1014.5
20260505095024 11 224 0.0 3.2 0.08 0.20 0.20 89 1014.5
20260505094503 11 0 0.0 4.8 0.10 0.20 0.20 89 1014.6
20260505094003 11 213 0.0 4.8 0.13 0.20 0.20 89 1014.6
20260505093524 11 224 1.6 4.8 0.13 0.20 0.20 89 1014.7
20260505093029 11 234 3.2 4.8 0.13 0.20 0.20 89 1014.9
20260505092524 11 230 3.2 4.8 0.13 0.20 0.20 88 1014.9
20260505092003 11 227 3.2 4.8 0.13 0.20 0.20 88 1014.9
20260505091503 11 230 3.2 4.8 0.13 0.20 0.20 88 1015.0
20260505091003 11 233 3.2 4.8 0.13 0.20 0.20 88 1014.9
20260505090503 11 232 1.6 4.8 0.10 0.18 0.18 88 1015.1
20260505090016 11 224 1.6 4.8 0.10 0.18 0.18 88 1015.1
20260505085503 11 224 3.2 4.8 0.10 0.15 0.15 87 1015.1
20260505085003 11 223 1.6 4.8 0.08 0.13 0.13 87 1015.1
20260505084524 11 226 3.2 6.4 0.05 0.10 0.10 87 1015.1
20260505084003 11 227 3.2 8.0 0.05 0.08 0.08 87 1015.0
20260505083524 11 226 3.2 8.0 0.05 0.08 0.08 87 1015.0
20260505083003 11 230 4.8 8.0 0.05 0.08 0.08 86 1015.0
20260505082503 11 229 4.8 8.0 0.05 0.08 0.08 86 1015.0
20260505082003 11 231 4.8 8.0 0.08 0.08 0.08 86 1015.0
20260505081503 11 237 4.8 8.0 0.08 0.08 0.08 86 1015.2
20260505081003 11 238 3.2 8.0 0.08 0.08 0.08 85 1015.2
20260505080524 11 243 3.2 9.7 0.08 0.08 0.08 85 1015.2
20260505080024 11 250 4.8 9.7 0.08 0.08 0.08 85 1015.3
20260505075503 11 259 4.8 11.3 0.05 0.05 0.05 84 1015.4
20260505075024 11 260 4.8 11.3 0.05 0.05 0.05 84 1015.4
20260505074503 11 263 6.4 11.3 0.05 0.05 0.05 84 1015.4
20260505074024 11 267 4.8 11.3 0.03 0.03 0.03 83 1015.4
20260505073503 11 272 4.8 11.3 0.03 0.03 0.03 83 1015.5
20260505073024 11 280 4.8 11.3 0.03 0.03 0.03 83 1015.6
20260505072503 12 288 4.8 11.3 0.03 0.03 0.03 82 1015.4
20260505072003 12 288 6.4 11.3 0.00 0.00 0.00 82 1015.6
20260505071503 12 284 6.4 11.3 0.00 0.00 0.00 82 1015.4
20260505071003 12 280 4.8 11.3 0.00 0.00 0.00 82 1015.4
20260505070524 12 280 4.8 11.3 0.00 0.00 0.00 82 1015.5
20260505070024 12 286 4.8 12.9 0.00 0.00 0.00 81 1015.5
20260505065524 12 279 4.8 12.9 0.00 0.00 0.00 81 1015.4
20260505065003 12 271 6.4 14.5 0.00 0.00 0.00 81 1015.2
20260505064503 12 268 6.4 14.5 0.00 0.00 0.00 81 1015.2
20260505064003 12 264 6.4 16.1 0.00 0.00 0.00 82 1015.3
20260505063524 12 270 6.4 16.1 0.00 0.00 0.00 82 1015.2
20260505063003 12 274 6.4 14.5 0.00 0.00 0.00 81 1015.1
20260505062503 12 269 8.0 14.5 0.00 0.00 0.00 81 1015.1